Terminal Aerodrome Forecast
Issued by NWS Milwaukee/Sullivan, WI

Home | Current Version | Previous Version | Text Only | Print | Product List | Glossary On
Versions: 1 2 3 4 5 6 7 8 9 10 11 12 13 14 15 16 17 18 19 20 21 22 23 24 25 26 27 28 29 30 31 32 33 34 35 36 37 38 39 40 41 42 43 44 45 46 47 48 49 50
047
FTUS43 KMKX 061738
TAFMSN
TAF
KMSN 061738Z 0618/0718 24007KT P6SM OVC015
     FM070100 21006KT P6SM BKN025
     FM070400 21008KT P6SM OVC040
     FM070700 21009KT P6SM OVC070
     FM071600 24008KT P6SM BKN060=

USA.gov is the U.S. government's official web portal to all federal, state and local government web resources and services.